sat.trackr.live / text

‹ back to catalog

STARLINK-37476

NORAD 68853 · 2026-094Q

PAYLOAD ACTIVE UNKNOWN

§ Identity

Operator
Country
US
Launch date
2026-04-26
Launch site
AFWTR
Launch vehicle
Mass (kg)
RCS (m²)

Purposes: comms

External: N2YO · Heavens-Above · Gunter

§ Orbital elements

Epoch: 2026-09-19T07:05:48.504192Z

Period
93.91 min
Inclination
97.2816°
Eccentricity
0.0001321
Mean motion
15.33446844 rev/d
Perigee alt
464.6 km
Apogee alt
466.4 km
Semi-major
6,843.7 km
B*
4.6955e-4
RAAN
275.4473°
Arg perigee
95.5584°
Mean anomaly
264.5809°
Rev number
2,247

§ Raw data

STARLINK-374761 68853U 26094Q   26262.29570028  .00015115  00000+0  46955-3 0  99962 68853  97.2816 275.4473 0001321  95.5584 264.5809 15.33446844 22471

JSON: /api/v1/satellites/68853 · /tle

For live sub-satellite position, see the globe view (requires WebGL).

§ Visibility from observer

Set your observer location to see the next 7 days of passes ≥ 10°. The values pass through the URL so the page stays shareable.

No JS? Fill the form by hand. The geolocation button needs JavaScript.